Location: Kalberh�ni
(46.4610°N, 7.2453°E)
Time: 08:14:25
(UTC+00:00)

Cosmos 1455 - Pass Details

Date: 26 October 2021
Orbit: 496 x 520 km, 82.5° (Epoch: 27 November)

Event Time Altitude Azimuth Distance (km) Brightness Sun altitude
Rises 04:54:56 0° 358° (N) 2,602 5.7 -12.5°
Reaches altitude 10° 04:57:11 10° 6° (N) 1,710 4.8 -12.1°
Maximum altitude 05:00:41 37° 76° (ENE) 782 3.7 -11.5°
Drops below altitude 10° 05:04:09 10° 145° (SE) 1,693 5.4 -10.9°
Sets 05:06:21 0° 154° (SSE) 2,570 6.2 -10.5°
